Location: Julian California
(33.0790°N, 116.6010°W)
Time: 01:30:02
(UTC-07:00)

Daily predictions for brighter satellites

Satellite Brightness Start Highest point End
(mag) Time Altitude Azimuth Time Altitude Azimuth Time Altitude Azimuth
ATLAS 3B R/B 4.4 02:29:11 25° NNW 02:29:11 25° NNW 02:33:53 10° N
SL-16 R/B 4.5 02:56:32 15° NNW 02:56:32 15° NNW 02:57:55 10° N
ARIANE 5 R/B 4.3 02:53:19 10° NNE 02:56:01 29° NE 02:56:01 29° NE
Resurs 1-4 Rocket 3.6 03:01:26 10° NNE 03:04:42 33° NE 03:04:42 33° NE
Okean O Rocket 4.1 03:16:48 10° NE 03:19:41 17° E 03:19:41 17° E
USA 234 3.6 03:14:09 10° NE 03:19:56 57° NNW 03:19:56 57° NNW
Cosmos 2315 Rocket 4.4 03:24:15 57° E 03:24:23 57° E 03:30:29 10° NNE
CZ-4C R/B 4.2 03:31:42 17° NNW 03:31:42 17° NNW 03:34:35 10° N
CZ-3 R/B 4.4 02:19:26 10° W 03:30:43 74° SSW 03:44:32 10° ESE
ATLAS 5 CENTAUR R/B 2.9 03:33:05 42° ENE 03:33:05 42° ENE 03:36:35 10° NE
NOSS 3-2 (A) 4.5 03:35:51 35° NNW 03:35:51 35° NNW 03:40:56 10° NNE
MOS 1-B 4.2 03:42:02 10° NNE 03:47:49 83° ESE 03:47:54 82° ESE
NOSS 3-3 (A) 4.4 03:41:34 10° NNW 03:49:12 89° WSW 03:57:13 10° SSE
NOSS 3-3 (C) 4.4 03:41:40 10° NNW 03:49:18 90° WSW 03:57:20 10° SSE
SL-16 R/B 2.5 03:50:55 68° WNW 03:50:55 68° WNW 03:56:30 10° NNW
Cosmos 724 4.5 03:51:26 58° NW 03:51:26 58° NW 03:56:51 10° NNE
NOSS 3-2 (C) 4.4 03:51:36 35° NW 03:51:36 35° NW 03:57:14 10° NNE
Meteor 2-10 4.3 03:52:16 66° NNW 03:52:16 66° NNW 03:57:03 10° N
Atlas Centaur 2 4.0 03:52:50 14° SE 03:52:50 14° SE 03:54:25 10° ESE
Meteor 2-11 Rocket 4.3 03:52:04 72° SSE 03:52:42 84° E 03:58:47 10° N
CENTAUR R/B 2.7 03:52:48 54° SSE 03:53:46 61° ESE 04:00:14 10° NE
Meteor 2-3 Rocket 4.2 03:48:54 10° NNW 03:53:17 50° NW 03:53:17 50° NW
Cosmos 1862 Rocket 4.0 04:00:17 58° NE 04:00:17 58° NE 04:04:02 10° NNE
ATLAS CENTAUR R/B 4.2 03:56:03 10° NNW 03:56:06 10° NNW 03:56:06 10° NNW
ARGOS Delta rocket 4.0 03:56:26 10° NNE 04:00:30 62° ENE 04:00:30 62° ENE
COSMOS 2406 4.1 04:01:21 30° SSE 04:03:42 44° ESE 04:09:08 10° NE
Cosmos 1943 4.1 04:07:23 34° NW 04:07:23 34° NW 04:11:50 10° N
CZ-2D R/B 2.8 04:04:03 10° N 04:08:02 38° NW 04:08:02 38° NW
Cosmos 1455 3.7 04:15:26 28° NNW 04:15:26 28° NNW 04:17:28 10° N
OAO 3 Copernicus 4.3 04:14:43 64° NW 04:15:25 77° N 04:20:28 10° E
PSLV R/B 4.0 04:13:52 10° NNE 04:17:04 63° NNE 04:17:04 63° NNE
Cosmos 389 Rocket 3.4 04:19:52 42° N 04:19:52 42° N 04:22:16 10° N
Cosmos 1709 Rocket 4.0 04:14:57 10° NNW 04:21:07 55° W 04:22:26 47° SW
Cosmos 2369 Rocket 2.2 04:16:52 10° NNW 04:22:20 55° WSW 04:22:33 54° WSW
CZ-4B DEB 4.5 04:17:10 10° NNE 04:22:36 65° ESE 04:25:59 23° S
Cosmos 1302 Rocket 3.8 04:19:50 10° NNW 04:25:03 71° WSW 04:28:13 24° S
CZ-4B R/B 3.2 04:20:35 10° NNE 04:25:53 76° ESE 04:28:39 29° S
Cosmos 839 Rocket 4.3 04:19:26 10° NW 04:26:43 51° WSW 04:32:49 10° S
Cosmos 1733 Rocket 3.0 04:26:34 10° NNW 04:30:53 62° W 04:30:57 62° W
ARIANE 5 R/B 4.3 04:33:49 10° NNW 04:36:21 16° NW 04:36:21 16° NW
Cosmos 1184 Rocket 3.8 04:34:04 10° NNW 04:36:16 36° NNW 04:36:16 36° NNW
Cosmos 2074 Rocket 3.9 04:36:44 10° N 04:42:58 89° W 04:49:13 10° S
Cosmos 2327 Rocket 4.4 04:39:09 10° N 04:45:16 88° W 04:51:27 10° S
Resurs 1-4 Rocket 3.7 04:42:27 10° NNW 04:45:46 18° WNW 04:45:46 18° WNW
Cosmos 2184 Rocket 4.0 04:39:36 10° N 04:46:01 87° W 04:52:21 10° S
SeaSat 1 2.4 04:43:01 10° SSE 04:47:52 62° WSW 04:52:45 10° NNW
Cosmos 1943 Rocket 2.1 04:43:05 10° NNW 04:48:46 83° WSW 04:54:22 10° SSE
Geosat 3.9 04:48:11 10° NNE 04:53:13 88° WNW 04:56:47 20° SSW
Cosmos 2221 Rocket 3.5 04:50:05 16° S 04:53:33 88° W 04:57:59 10° N
Cosmos 1408 2.6 04:50:31 10° N 04:54:15 87° E 04:58:00 10° S
PAYLOAD B 4.4 04:49:06 10° N 04:54:28 54° WNW 04:57:48 23° SW
Okean O Rocket 2.4 04:52:04 10° N 04:56:05 34° WNW 04:57:09 30° W
Cosmos 1825 2.0 04:52:20 10° N 04:56:07 86° W 04:59:53 10° S
Cosmos 1908 Rocket 3.4 04:54:24 10° NNW 04:58:45 71° W 05:03:03 10° S
Cosmos 1862 3.1 04:55:07 10° N 04:59:04 72° W 05:03:00 10° S
Okean-O 2.8 04:55:15 10° NNE 04:59:41 74° ESE 05:04:06 10° S
GPS 2-05 Rocket1 3.5 05:00:14 30° SSW 05:01:15 40° SSE 05:04:20 10° E
ADEOS II 2.3 04:57:10 10° NNE 05:02:25 72° ESE 05:07:38 10° S
Thor Agena Rocket 3.4 04:58:32 10° S 05:03:37 78° WSW 05:08:48 10° NNW
Cosmos 1190 Rocket 3.9 05:01:30 12° SSW 05:06:20 85° WNW 05:11:32 10° NNE
CZ-4B R/B 3.5 05:04:33 10° N 05:07:50 31° WNW 05:08:56 26° WSW
SL-27 R/B 3.8 05:07:47 23° W 05:08:11 24° WNW 05:11:11 10° NNW
Cosmos 1933 4.1 05:08:35 25° WSW 05:10:07 33° W 05:13:51 10° NNW
Cosmos 1703 Rocket 3.9 05:08:44 17° SSW 05:11:53 46° W 05:16:12 10° N
Sich 1 Rocket 4.1 05:07:57 10° NNW 05:11:59 37° W 05:16:01 10° SSW
Meteor 1-26 Rocket 4.2 05:08:56 10° S 05:14:42 81° W 05:20:36 10° N
USA 32 4.2 05:10:10 10° SSW 05:15:13 50° W 05:20:18 10° N
Cosmos 2285 Rocket 4.0 05:09:12 10° NNW 05:15:37 77° WSW 05:21:57 10° S
Feng Yun 1-1 Rocket 4.1 05:10:34 10° NNE 05:15:58 86° WNW 05:21:24 10° SSW
ATLAS 5 CENTAUR R/B 3.7 05:14:39 12° WNW 05:16:47 15° NW 05:19:47 10° N
Cosmos 1992 Rocket 3.9 05:16:23 10° NNW 05:21:36 72° WSW 05:26:47 10° S
Cosmos 1656 Rocket 3.6 05:16:30 10° NNW 05:21:56 86° ENE 05:27:20 10° SSE
MOS 1 Rocket 4.1 05:18:01 10° NNE 05:22:08 47° E 05:26:16 10° S
Cosmos 1954 Rocket 4.5 05:21:15 10° S 05:26:19 64° ESE 05:31:26 10° NNE
Centaur D-1A AC-31 2.1 05:18:27 13° W 05:26:26 49° SSW 05:29:55 10° ESE
USA 116 4.2 05:31:34 10° S 05:36:02 62° W 05:41:03 10° NNW
Cosmos 1782 3.9 05:33:25 10° SSE 05:37:16 48° E 05:41:10 10° NNE
PSLV R/B 4.4 05:34:13 10° N 05:38:08 33° WNW 05:42:02 10° SW
Atlas Centaur 2 2.5 05:35:30 11° SW 05:39:48 47° SSE 05:45:28 10° E
Cosmos 676 Rocket 4.0 05:38:42 10° SSW 05:43:48 64° WNW 05:48:57 10° N
ADEOS Rocket 3.9 05:37:10 10° N 05:44:32 50° WNW 05:51:52 10° SW
COBE Rocket 4.2 05:39:32 10° NNE 05:44:43 79° ESE 05:49:46 10° S
CENTAUR R/B 3.9 05:40:14 10° W 05:44:57 22° NW 05:50:06 10° N
Intelsat 3F5 C 4.1 05:43:52 11° WSW 05:46:15 40° S 05:48:31 10° ESE
Centaur D-1AR AC-36 3.6 05:43:53 10° SW 05:49:26 21° S 05:52:18 10° SE
Okean 2 Rocket 3.7 05:46:52 10° NNW 05:51:01 37° W 05:55:09 10° SSW
Okean 1-7 4.2 05:50:47 10° SW 05:54:12 23° WNW 05:57:39 10° NNW
